Simultaneous Nadir Overpasses (SNOs) Predictions

Prediction of SNOs between GOES-17 and METOP-C Satellite Orbit:

Table of predicted SNOs for the next 14.0 days since TLE Epoch: 7/30/2022
Index Date Time (GOES-17) GOES-17 Lat,Lon METOP-C Lat,Lon Distance(km) Time Diff (sec)
1 08/01/2022 06:41:17 0.02,-137.30 0.04,-137.33 4.23 80
2 08/03/2022 18:39:28 -0.02,-137.30 -0.10,-136.89 45.98 80
3 08/05/2022 06:55:48 0.02,-137.29 -0.89,-141.49 478.26 80
4 08/06/2022 06:37:47 0.01,-137.28 0.18,-136.49 90.16 80
5 08/07/2022 18:54:00 -0.02,-137.27 0.82,-141.06 431.89 80
6 08/08/2022 18:35:59 -0.01,-137.25 -0.26,-136.06 135.87 80
7 08/10/2022 06:52:18 0.02,-137.23 -0.73,-140.66 390.33 80
8 08/11/2022 06:34:19 0.03,-137.21 0.40,-135.67 176.86 80
9 08/12/2022 18:50:30 -0.03,-137.19 0.66,-140.22 346.27 80
